[[{"header":{"parameterUnit":"m.s-1","parameterCategory":1,"la1":30.2992,"la2":30.254,"lo1":-89.0895,"lo2":-89.0443,"dy":0.0025,"dx":0.0025,"nx":19,"ny":19,"refTime":"2026-03-06T03:00:00:Z","depth":0,"parameterNumber":2,"parameterNumberName":"U-component_of_WINDS"},"data":[0,0,0,-3.8197,-3.8199,-3.8287,-3.8288,-3.8397,-3.8398,0,0,0,0,0,0,0,0,0,0,0,-3.8169,-3.817,-3.8197,-3.8199,-3.8287,-3.8288,-3.8397,-3.8398,0,0,0,0,0,0,0,0,0,0,0,-3.8169,-3.817,-3.8171,-3.82,-3.8287,-3.8288,-3.8396,-3.8331,0,0,0,0,0,0,0,0,0,0,-3.8246,-3.8218,-3.8169,-3.8171,-3.82,-3.8287,-3.8288,-3.8328,-3.8335,-3.8356,0,-3.8373,0,-3.8387,-3.8405,-3.8405,0,0,0,-3.82,-3.8212,-3.8238,-3.8171,-3.8201,-3.8287,-3.8248,-3.8332,-3.834,-3.8365,-3.8375,-3.8379,-3.8389,-3.8406,-3.8406,-3.8522,-3.8522,0,0,-3.8195,-3.8183,-3.8232,-3.8243,-3.823,-3.8245,-3.825,-3.8337,-3.8347,-3.8375,-3.8382,-3.8391,-3.8406,-3.8407,-3.8521,-3.8522,0,0,0,-3.8181,-3.818,-3.8204,-3.8239,-3.8255,-3.8247,-3.8254,-3.8343,-3.8352,-3.8383,-3.8392,-3.8407,-3.8408,-3.8521,-3.8522,-3.8533,0,0,0,-3.8178,-3.8172,-3.8202,-3.8195,-3.8253,-3.83,-3.8258,-3.8346,-3.8356,-3.8392,-3.8407,-3.8409,-3.852,-3.8521,-3.8531,-3.8539,0,0,0,-3.8164,-3.817,-3.8182,-3.8194,-3.8232,-3.8299,-3.8313,-3.8348,-3.8362,-3.8405,-3.8409,-3.852,-3.8521,-3.853,-3.8537,-3.8565,0,0,0,-3.8145,-3.819,-3.8182,-3.8237,-3.8231,-3.8306,-3.8312,-3.8369,-3.8408,-3.8407,-3.852,-3.8522,-3.853,-3.8536,-3.8564,-3.8584,-3.8593,0,0,-3.8195,-3.8196,-3.8229,-3.8224,-3.8298,-3.8294,-3.8369,-3.8416,-3.8431,-3.8491,-3.8494,-3.8532,-3.8537,-3.8565,-3.8649,-3.8655,0,0,0,-3.8241,-3.8264,-3.8287,-3.8324,-3.8362,-3.8395,-3.8432,-3.845,-3.8502,-3.8459,-3.8552,-3.8555,-3.8572,-3.8582,-3.8588,-3.8602,-3.8527,-3.8527,-3.8526,-3.8291,-3.831,-3.8366,-3.8396,-3.8432,-3.8472,-3.8503,-3.8534,-3.854,-3.8562,-3.8578,-3.8628,-3.8639,-3.8644,-3.8659,-3.8594,-3.8594,-3.8594,-3.8594,-3.8364,-3.8399,-3.8411,-3.8469,-3.8489,-3.8537,-3.8579,-3.8582,-3.863,-3.8616,-3.8632,-3.8611,-3.865,-3.8664,-3.8595,-3.8595,-3.8595,-3.8595,-3.8595,-3.8396,-3.8416,-3.8439,-3.8497,-3.8539,-3.8569,-3.8616,-3.8633,-3.8649,-3.8665,-3.8683,-3.8683,-3.8683,-3.8673,-3.8673,-3.8674,-3.8674,-3.8674,-3.8674,-3.8419,-3.8445,-3.8482,-3.8529,-3.8556,-3.8594,-3.8638,-3.8665,-3.8699,-3.8708,-3.8708,-3.8712,-3.8652,-3.8634,-3.8677,-3.8676,-3.8676,-3.8676,-3.8675,-3.848,-3.847,-3.8526,-3.8554,-3.8612,-3.8653,-3.8676,-3.8731,-3.8757,-3.8779,-3.8782,-3.8736,-3.8737,-3.8732,-3.8718,-3.8779,-3.8779,-3.8779,-3.8779,-3.8504,-3.8509,-3.8571,-3.8614,-3.8659,-3.8687,-3.8751,-3.8787,-3.8821,-3.8838,-3.8833,-3.8817,-3.8812,-3.8816,-3.881,-3.8796,-3.8876,-3.8876,-3.8876,-3.8542,-3.8552,-3.8602,-3.8637,-3.8684,-3.8725,-3.8785,-3.8835,-3.8872,-3.888,-3.8852,-3.8848,-3.8822,-3.8813,-3.8814,-3.8805,-3.878,0,0]},{"header":{"parameterUnit":"m.s-1","parameterCategory":1,"la1":30.2992,"la2":30.254,"lo1":-89.0895,"lo2":-89.0443,"dy":0.0025,"dx":0.0025,"nx":19,"ny":19,"refTime":"2026-03-06T03:00:00:Z","depth":0,"parameterNumber":3,"parameterNumberName":"V-component_of_WINDS"},"data":[0,0,0,2.6934,2.6934,2.6954,2.6954,2.6963,2.6963,0,0,0,0,0,0,0,0,0,0,0,2.692,2.692,2.6934,2.6934,2.6954,2.6954,2.6963,2.6963,0,0,0,0,0,0,0,0,0,0,0,2.692,2.692,2.692,2.6934,2.6954,2.6954,2.6963,2.6953,0,0,0,0,0,0,0,0,0,0,2.6937,2.6916,2.692,2.692,2.6934,2.6953,2.6954,2.6953,2.6954,2.6948,0,2.6942,0,2.6953,2.6963,2.6963,0,0,0,2.6939,2.6916,2.6929,2.6919,2.6934,2.6953,2.6946,2.6954,2.6954,2.6949,2.6942,2.6943,2.6953,2.6963,2.6962,2.6918,2.6918,0,0,2.6938,2.6918,2.6928,2.6929,2.6927,2.6945,2.6947,2.6954,2.6945,2.6942,2.6943,2.6953,2.6962,2.6962,2.6918,2.6918,0,0,0,2.6931,2.6917,2.693,2.6928,2.6933,2.6946,2.6947,2.6944,2.6951,2.6944,2.6953,2.6962,2.6962,2.6919,2.6918,2.6879,0,0,0,2.6931,2.6913,2.693,2.6918,2.6933,2.6939,2.6937,2.695,2.6952,2.6953,2.6962,2.6962,2.6919,2.6919,2.6882,2.6864,0,0,0,2.6921,2.6912,2.6913,2.6917,2.6925,2.694,2.6947,2.6951,2.6957,2.6963,2.6962,2.692,2.6919,2.6884,2.6867,2.6848,0,0,0,2.6904,2.6874,2.6912,2.6883,2.6924,2.6916,2.6947,2.6941,2.694,2.6962,2.6919,2.6918,2.6884,2.6869,2.685,2.683,2.6819,0,0,2.6856,2.6868,2.6853,2.6887,2.6868,2.6915,2.6889,2.6906,2.6922,2.6918,2.6917,2.6881,2.6867,2.6849,2.6766,2.6758,0,0,0,2.6831,2.682,2.6819,2.682,2.6835,2.6846,2.6869,2.6876,2.6875,2.6917,2.6869,2.6861,2.6851,2.6843,2.6835,2.6829,2.6913,2.6913,2.6913,2.6732,2.676,2.6737,2.6767,2.6767,2.6795,2.6797,2.6811,2.6834,2.6823,2.6821,2.6768,2.6757,2.6752,2.6745,2.6812,2.6812,2.6812,2.6812,2.6665,2.6654,2.6692,2.6683,2.6711,2.6703,2.6729,2.6747,2.6743,2.677,2.6763,2.6791,2.6742,2.6737,2.6809,2.681,2.681,2.681,2.681,2.6604,2.6604,2.6616,2.6623,2.6626,2.6656,2.6653,2.6678,2.6701,2.6693,2.6696,2.6697,2.6702,2.6693,2.6693,2.6693,2.6693,2.6693,2.6693,2.6537,2.6551,2.6547,2.6564,2.657,2.6581,2.661,2.6616,2.6629,2.6647,2.6647,2.6673,2.6733,2.6748,2.669,2.669,2.6691,2.6691,2.6691,2.6459,2.6482,2.6475,2.6482,2.6505,2.6508,2.6541,2.6552,2.656,2.6558,2.6587,2.6626,2.6639,2.6645,2.6658,2.658,2.658,2.658,2.658,2.6409,2.6419,2.642,2.643,2.6442,2.6473,2.6465,2.6488,2.6515,2.6522,2.6537,2.6556,2.6561,2.6571,2.6578,2.6591,2.6498,2.6498,2.6497,2.6364,2.6377,2.6366,2.6396,2.6418,2.6435,2.6429,2.6437,2.6472,2.6495,2.6529,2.6532,2.6563,2.6571,2.6593,2.6604,2.6627,0,0]}]]